TimeCDT,TemperatureF,Dew PointF,Humidity,Sea Level PressureIn,VisibilityMPH,Wind Direction,Wind SpeedMPH,Gust SpeedMPH,PrecipitationIn,Events,Conditions,WindDirDegrees,DateUTC
12:53 AM,21.9,17.1,82,30.01,9.0,WNW,9.2,-,0.00,Snow,Light Snow,300,2013-04-11 05:53:00
1:53 AM,21.0,16.0,81,30.00,9.0,WNW,10.4,-,0.00,Snow,Light Snow,300,2013-04-11 06:53:00
2:53 AM,21.0,17.1,85,29.96,7.0,WNW,11.5,-,0.00,Snow,Light Snow,300,2013-04-11 07:53:00
3:05 AM,21.2,17.6,86,29.85,10.0,WNW,11.5,-,0.00,Rain,Light Freezing Rain,300,2013-04-11 08:05:00
3:33 AM,21.2,17.6,86,29.83,10.0,WNW,12.7,-,0.00,,Overcast,300,2013-04-11 08:33:00
3:53 AM,21.9,17.1,82,29.91,10.0,WNW,11.5,-,0.00,,Overcast,300,2013-04-11 08:53:00
4:53 AM,21.9,17.1,82,29.88,10.0,WNW,10.4,-,N/A,,Overcast,290,2013-04-11 09:53:00
5:53 AM,23.0,18.0,81,29.85,10.0,WNW,15.0,-,N/A,,Overcast,300,2013-04-11 10:53:00
6:53 AM,21.9,17.1,82,29.84,10.0,WNW,12.7,-,N/A,,Overcast,300,2013-04-11 11:53:00
7:53 AM,21.9,16.0,78,29.86,10.0,WNW,15.0,-,N/A,,Overcast,300,2013-04-11 12:53:00
8:53 AM,23.0,18.0,81,29.87,10.0,WNW,11.5,-,N/A,,Overcast,290,2013-04-11 13:53:00
9:32 AM,24.8,17.6,74,29.78,10.0,WNW,10.4,-,0.00,,Overcast,300,2013-04-11 14:32:00
9:53 AM,25.0,19.0,78,29.87,8.0,WNW,12.7,-,0.00,,Overcast,300,2013-04-11 14:53:00
10:53 AM,28.0,19.9,72,29.85,2.0,NW,13.8,-,0.00,Snow,Light Snow,310,2013-04-11 15:53:00
11:20 AM,28.4,21.2,74,29.77,3.0,NW,17.3,-,0.00,Snow,Light Snow,310,2013-04-11 16:20:00
11:53 AM,30.2,21.2,69,29.76,8.0,NW,18.4,-,N/A,,Overcast,320,2013-04-11 16:53:00
12:53 PM,30.9,21.9,69,29.83,10.0,NW,17.3,-,0.00,,Overcast,310,2013-04-11 17:53:00
1:53 PM,32.0,21.9,66,29.82,10.0,NW,23.0,27.6,N/A,,Overcast,320,2013-04-11 18:53:00
2:53 PM,32.0,21.9,66,29.83,10.0,NNW,18.4,26.5,N/A,,Overcast,330,2013-04-11 19:53:00
3:53 PM,32.0,23.0,69,29.83,10.0,NNW,13.8,-,N/A,,Overcast,340,2013-04-11 20:53:00
4:53 PM,32.0,23.0,69,29.82,10.0,North,13.8,-,0.00,,Overcast,350,2013-04-11 21:53:00
5:02 PM,33.8,23.0,65,29.74,10.0,NNW,15.0,-,N/A,,Mostly Cloudy,340,2013-04-11 22:02:00
5:53 PM,33.1,23.0,66,29.83,10.0,NNW,15.0,-,N/A,,Overcast,340,2013-04-11 22:53:00
6:53 PM,32.0,21.9,66,29.85,10.0,NNW,16.1,24.2,0.00,,Scattered Clouds,330,2013-04-11 23:53:00
7:53 PM,30.9,21.0,67,29.86,10.0,NNW,15.0,-,N/A,,Overcast,340,2013-04-12 00:53:00
8:53 PM,30.0,21.0,69,29.88,10.0,NNW,11.5,-,N/A,,Overcast,340,2013-04-12 01:53:00
9:53 PM,28.9,21.0,72,29.91,10.0,NNW,15.0,-,N/A,,Overcast,330,2013-04-12 02:53:00
10:42 PM,28.4,21.2,74,29.84,10.0,NW,12.7,-,N/A,,Overcast,320,2013-04-12 03:42:00
10:53 PM,28.9,21.0,72,29.92,10.0,NW,12.7,-,N/A,,Overcast,310,2013-04-12 03:53:00
11:53 PM,28.9,21.9,75,29.92,10.0,NW,11.5,-,N/A,,Mostly Cloudy,320,2013-04-12 04:53:00